SCP
0 0 0 0 0 0 0 0 0 0 0 0 0 0 0 0 0 0 0 0 0 0 0 0 0 0 0 0 0 0 0 0 0 0 0 0 0 0 0 0 0 0 0 0
0 0 0 0 0 0 0 0 0 0 0 0 0 0 0 0 0 0 0 0 0 0 0 0 0 0 0 0 0 0 0 0 0 0 0 0 0 0 0 0 0 0 0 0
0 0 0 0 0 0 0 0 0 0 0 0 0 0 0 0 0 0 0 0 0 0 0 0 0 0 0 0 0 0 0 0 0 0 0 0 0 0 0 0 0 0 0 0
0 0 0 0 0 0 0 0 0 0 0 0 0 0 0 0 0 0 0 0 0 0 0 0 0 0 0 0 0 0 0 0 0 0 0 0 0 0 0 0 0 0 0 0
0 0 0 0 0 0 0 0 0 0 0 0 0 0 0 0 0 0 0 0 0 0 -0 0 0 0 0 0 0 0 0 0 0 0 0 0 0 0 0 0 0 0 0 0
0 0 0 0 0 0 0 0 0 0 0 0 0 0 0 0 0 0 0 0 0 0 0 0 0 0 0 0 0 0 0 0 0 0 0 0 0 0 0 0 0 0 0 0
0 0 0 0 0 0 0 0 0 0 0 0 0 0 0 0 0 0 0 0 0 0 0 0 0 0 0 0 0 0 0 0 0 0 0 0 0 0 0 0 0 0 0 0
0 0 0 0 0 0 0 0 0 0 0 0 0 0 0 0 0 0 0 0 0 0 0 0 0 0 0 0 0 0 0 0 0 0 0 0 0 0 0 0 0 0 0 0
0 0 0 0 0 0 0 0 0 0 0 0 0 0 0 0 0 0 0 0 0 -0 0 0 0 0 0 0 0 0 0 0 0 0 0 0 0 0 0 0 0 0 0 0
0 0 0 0 0 0 0 0 0 0 0 0 0 0 0 0 0 0 0 0 0 0 0 0 -0 0 0 0 0 0 0 0 0 0 0 0 0 0 0 0 0 0 0 0
0 0 0 0 0 0 0 0 0 0 0 0 0 0 0 0 0 0 0 0 0 0 0 0 0 0 0 0 0 0 0 0 0 0 0 0 0 0 0 0 0 0 0 0
0 0 0 0 0 0 0 0 0 0 0 0 0 0 0 0 0 0 0 0 0 0 0 0 0 0 0 0 0 0 0 0 0 0 0 0 0 0 0 0 0 0 0 0
0 0 0 0 0 0 0 0 0 0 0 0 0 0 0 0 0 0 0 0 0 0 0 0 0 0 0 0 0 0 0 0 0 0 0 0 0 0 0 0 0 0 0 0
0 0 0 0 0 0 0 0 0 0 0 0 0 0 0 0 0 0 0 0 0 0 0 0 0 0 0 0 0 0 0 0 0 0 0 0 0 0 0 0 0 0 0 0
0 0 0 0 0 0 0 0 0 0 0 0 0 0 0 0 0 0 0 0 0 0 0 0 0 0 0 0 0 0 0 0 0 0 0 0 0 0 0 0 0 0 0 0
0 0 0 0 0 0 0 0 0 0 0 0 0 0 0 0 0 0 0 0 0 0 0 0 0 0 0 0 0 0 0 0 0 0 0 0 0 0 0 0 0 0 0 0
0 0 0 0 0 0 0 0 0 0 0 0 0 0 0 0 0 0 0 0 0 0 0 0 0 0 0 0 0 0 0 0 0 0 0 0 0 0 0 0 0 0 0 0
0 0 0 0 0 0 0 0 0 0 0 0 0 0 0 0 0 0 0 0 0 0 0 0 0 0 0 0 0 0 0 0 0 0 0 0 0 0 0 0 0 0 0 0
0 0 0 0 0 0 0 0 0 0 0 0 0 0 0 0 0 0 0 0 0 0 0 0 0 0 0 0 0 0 0 0 0 0 0 0 0 0 0 0 0 0 0 0
0 0 0 0 0 0 0 0 0 0 0 0 0 0 0 0 0 0 0 0 0 0 0 0 0 0 0 0 0 0 0 0 0 0 0 0 0 0 0 0 0 0 0 0
0 0 0 0 0 0 0 0 0 0 0 0 0 0 0 0 0 0 0 0 0 0 0 0 0 0 0 0 0 0 0 0 0 0 0 0 0 0 0 0 0 0 0 0
0 0 0 0 0 0 0 0 0 0 0 0 0 0 0 0 0 0 0 0 0 0 0 0 0 0 0 0 0 0 0 0 0 0 0 0 0 0 0 0 0 0 0 0
0 0 0 0 0 0 0 0 0 0 0 0 0 0 0 0 0 0 0 0 0 0 0 0 0 0 0 0 0 0 0 0 0 0 0 0 0 0 0 0 0 0 0 0
0 0 0 0 0 0 0 0 0 0 0 0 0 0 0 0 0 0 0 0 0 0 0 0 0 0 0 0 0 0 0 0 0 0 0 0 0 0 0 0 0 0 0 0
0 0 0 0 0 0 0 0 0 0 0 0 0 0 0 0 0 0 0 0 0 0 0 0 0 0 0 0 0 0 0 0 0 0 0 0 0 0 0 0 0 0 0 0
0 0 0 0 0 0 0 0 0 0 0 0 0 0 0 0 0 0 0 0 0 0 0 0 0 0 0 0 0 0 0 0 0 0 0 0 0 0 0 0 0 0 0 0
0 0 0 0 0 0 0 0 0 0 0 0 0 0 0 0 0 0 0 0 0 0 0 0 0 0 0 0 0 0 0 0 0 0 0 0 0 0 0 0 0 0 0 0
Wind_Speed
8 11 10 12 15 14 15 16 17 21 26 28 23 20 15 11 10 10 9 7 4 2 2 2 4 8 10 12 12 12 12 12 13 13 13 13 13 13 13 12 12 11 10 8
7 12 14 17 17 16 16 16 17 21 24 18 15 12 9 7 7 8 7 5 3 3 5 6 9 10 10 11 11 11 12 13 14 15 14 13 12 12 13 12 11 10 9 7
5 6 9 8 6 4 6 9 11 13 14 15 14 9 7 7 7 7 5 2 2 6 7 8 9 10 10 10 11 12 12 14 15 15 15 13 13 12 12 11 10 9 7 6
5 7 4 1 6 5 7 11 11 12 14 13 9 3 5 7 7 6 3 2 6 8 10 10 10 10 11 12 12 13 13 14 15 14 14 13 12 12 11 9 8 7 6 5
3 5 8 4 3 3 4 6 5 8 11 10 5 1 5 10 9 7 6 8 9 10 11 11 11 12 14 14 13 14 14 14 13 13 13 12 11 10 8 7 6 6 5 4
3 4 4 2 2 3 2 5 1 4 8 8 6 3 5 8 9 10 11 10 10 11 12 12 12 13 15 14 14 14 13 13 12 11 12 11 10 9 7 6 6 5 4 2
5 5 7 4 1 2 3 5 5 5 5 4 4 3 4 7 9 10 11 11 11 12 11 11 12 13 15 14 13 13 13 13 11 10 10 10 9 7 6 5 4 3 2 1
5 6 7 2 1 3 4 4 4 4 3 4 6 6 6 7 8 9 10 11 10 11 11 11 12 13 15 14 12 12 12 12 11 10 9 8 8 6 5 4 3 2 1 1
6 7 5 3 3 3 3 4 4 3 2 6 7 6 6 7 7 8 9 9 9 11 13 11 10 11 16 13 12 13 13 12 11 10 8 7 6 5 4 3 2 2 2 1
4 7 7 3 4 4 4 3 4 2 3 6 7 8 7 7 7 8 8 9 10 12 13 12 10 9 12 12 11 13 13 10 8 8 7 6 5 4 3 3 3 3 3 3
5 8 5 3 4 3 3 3 4 5 6 8 9 8 8 7 7 7 8 9 9 11 13 13 11 11 10 10 11 12 11 8 7 6 6 5 4 3 3 3 3 2 2 2
4 1 2 2 2 3 3 4 4 6 7 7 8 9 9 8 7 8 9 10 11 12 13 12 11 11 9 8 9 11 9 6 5 4 4 3 3 1 1 1 1 2 3 3
4 1 1 2 3 4 5 5 6 6 7 8 8 8 9 9 8 9 10 10 11 11 12 12 11 10 8 7 8 9 8 6 4 4 4 3 3 3 3 2 3 5 5 7
1 1 2 2 4 5 7 8 8 8 8 8 9 9 9 10 10 10 10 10 11 11 11 11 11 9 7 8 9 9 7 7 6 4 3 3 3 2 2 2 3 3 5 8
2 2 2 5 7 7 7 8 9 8 9 9 8 9 9 11 11 10 9 9 10 11 10 10 11 8 7 8 8 7 6 4 4 3 3 2 2 2 2 2 2 3 3 5
2 2 4 5 7 7 7 8 9 9 9 10 9 10 10 11 11 9 8 8 10 10 9 9 9 7 6 7 7 6 5 7 5 3 2 2 2 2 2 2 3 3 3 3
2 3 4 5 7 7 7 7 9 10 10 11 11 12 12 12 11 9 8 8 9 9 8 8 7 6 6 6 6 4 4 4 5 3 2 2 2 2 2 3 3 3 3 6
6 5 6 6 8 9 8 9 9 10 11 12 13 13 12 12 11 10 9 9 10 10 7 7 7 7 7 6 5 4 4 3 2 2 2 2 2 2 3 3 3 4 4 6
7 4 3 5 7 8 9 9 10 10 12 13 13 12 10 10 11 10 9 9 10 8 5 6 11 8 6 6 6 4 3 2 1 1 1 4 3 3 3 3 3 4 5 5
4 2 0 3 6 7 9 10 11 11 11 11 12 13 12 10 10 9 9 6 4 5 6 7 7 6 5 5 5 3 2 2 2 2 2 2 2 3 3 4 4 4 4 5
5 3 3 4 5 7 8 10 11 12 11 11 13 13 12 10 9 9 9 7 5 7 7 10 6 5 4 3 4 3 2 2 2 2 2 2 3 3 3 4 4 5 5 6
4 3 3 5 6 7 7 7 9 11 12 11 12 12 13 11 9 8 6 5 6 11 6 5 4 6 5 4 3 2 2 2 2 2 2 3 3 3 3 4 4 5 5 5
4 2 3 4 6 6 7 7 8 9 10 11 13 13 12 10 8 8 7 5 6 10 7 5 7 8 6 3 2 1 1 2 2 2 3 3 3 3 3 4 4 5 5 5
3 3 3 4 5 6 6 6 7 7 9 9 8 9 10 9 6 4 6 13 13 11 6 8 10 7 4 2 1 1 1 2 2 3 3 3 3 3 4 4 5 5 5 7
3 3 3 4 4 4 6 8 10 10 10 9 9 8 6 5 6 7 7 8 13 11 6 7 8 5 2 1 1 1 2 2 3 3 3 3 3 4 4 4 5 5 5 6
1 0 1 2 3 4 5 6 6 7 8 9 8 6 6 7 9 8 7 8 9 10 6 4 3 2 1 1 1 2 2 3 4 3 3 4 4 5 5 5 6 6 6 6
0 1 2 3 3 4 4 5 6 7 8 10 10 7 8 8 8 8 8 7 6 5 4 3 2 1 0 1 2 3 3 3 3 3 4 4 4 4 5 6 6 6 6 7
Wind_Direction
267 281 278 262 260 252 243 247 259 272 279 288 295 298 294 281 275 276 275 279 274 243 176 132 97 93 99 106 111 118 126 130 127 121 119 119 120 120 118 113 109 105 104 101
268 260 259 261 259 257 257 254 257 271 280 286 295 296 296 299 297 289 284 282 264 179 148 127 111 106 104 106 113 121 127 125 120 118 116 115 117 117 111 108 106 106 108 111
274 298 294 267 237 239 261 267 267 276 285 302 307 316 326 327 320 313 306 292 172 133 121 112 111 112 111 111 113 117 120 119 117 118 118 117 118 114 110 109 108 109 114 124
290 307 276 192 150 197 260 273 270 279 294 307 312 338 11 353 333 325 336 61 107 108 105 102 103 104 103 105 109 113 114 114 115 118 119 117 116 111 110 112 115 116 116 109
271 284 276 278 159 197 255 277 261 289 307 320 335 21 26 13 13 25 50 80 91 98 103 104 105 107 107 106 108 110 111 113 116 120 119 117 114 112 112 112 109 110 112 111
253 284 278 347 136 152 209 265 285 315 318 331 348 359 5 15 36 54 66 76 87 93 99 102 105 109 111 112 113 114 116 116 117 117 117 115 112 109 105 104 106 107 108 112
234 255 272 296 146 182 277 298 331 330 329 348 40 56 51 49 60 72 80 85 91 97 102 107 112 113 113 113 115 118 119 116 113 110 109 107 102 98 98 101 107 112 129 183
204 227 252 264 318 280 283 308 324 339 2 81 101 93 81 76 75 82 92 98 102 106 110 116 120 120 114 112 115 114 111 107 104 100 100 98 96 92 91 94 98 103 79 1
205 227 262 308 277 297 354 329 341 358 74 121 117 110 100 91 88 87 89 94 97 100 99 98 102 113 113 112 113 111 106 102 99 93 90 91 94 95 91 79 69 52 33 18
281 275 282 315 48 40 36 6 358 14 106 123 121 122 114 105 100 98 95 95 97 99 98 94 92 97 106 112 112 108 103 99 95 93 88 81 79 75 73 69 55 39 26 15
258 271 281 96 63 46 56 50 48 54 80 109 121 122 118 110 105 104 101 97 100 105 104 103 102 100 100 104 106 101 97 94 90 89 92 85 78 73 67 78 91 64 24 8
243 313 13 52 69 66 86 82 87 93 91 95 109 117 114 108 104 101 101 102 103 103 104 103 101 96 91 91 99 103 99 91 87 87 85 88 87 76 134 140 63 337 306 308
259 36 88 116 99 90 101 100 98 101 106 106 103 109 112 110 107 106 107 108 109 108 106 103 98 91 84 86 89 92 96 95 90 87 84 74 55 40 14 333 288 291 298 307
297 174 251 187 138 113 107 103 100 98 98 103 108 110 111 110 107 106 107 110 111 107 104 100 95 86 80 84 87 86 85 85 87 82 73 62 48 30 12 356 342 331 331 328
255 201 136 108 109 114 119 122 119 116 114 111 113 114 115 113 110 106 105 107 106 102 99 97 92 84 80 85 88 86 83 76 74 74 63 48 29 4 348 343 331 320 322 333
52 67 117 140 148 149 152 149 141 137 132 127 121 114 111 110 109 106 102 105 109 106 102 98 92 88 87 87 87 81 75 72 65 54 48 34 14 356 349 344 334 332 331 324
176 217 207 197 182 174 173 163 151 146 139 132 126 121 120 117 110 103 95 92 96 97 97 100 98 91 83 82 87 92 92 75 53 42 39 27 1 348 346 342 334 329 322 321
262 247 207 196 186 178 171 155 148 146 139 133 131 130 130 127 123 117 111 106 98 89 85 94 97 89 79 75 78 81 85 82 64 45 17 9 353 338 331 332 330 325 318 322
286 271 227 197 177 169 159 150 146 138 135 138 138 134 127 122 122 122 120 116 115 111 109 113 112 96 86 77 80 75 79 72 43 29 17 347 346 341 340 329 320 317 319 322
334 344 183 149 146 148 146 142 137 136 141 142 134 128 125 126 128 127 119 108 114 127 129 120 107 101 94 80 79 78 69 53 29 9 1 345 332 326 321 319 318 313 312 313
3 22 78 110 114 119 130 137 142 145 145 142 140 137 135 132 130 126 120 113 109 122 125 124 109 107 103 103 83 77 59 36 14 358 343 330 322 317 314 313 316 317 315 314
0 32 78 102 111 112 119 129 139 142 141 136 132 133 134 134 128 115 106 125 136 134 120 110 110 119 120 104 82 74 47 13 351 337 326 318 314 312 311 313 310 307 303 299
5 47 91 113 121 123 120 126 135 140 139 140 143 145 142 137 136 132 126 132 134 134 121 119 130 128 116 95 84 59 12 343 329 319 310 303 300 301 300 300 294 294 294 295
16 44 78 103 117 128 130 124 117 116 117 119 126 133 135 129 114 102 125 141 141 128 119 134 133 126 109 90 70 20 338 322 311 304 302 299 297 296 291 290 290 290 290 293
37 55 85 117 127 125 121 117 114 118 118 117 114 110 108 114 124 127 125 133 135 123 116 132 131 122 99 75 26 332 310 293 286 292 291 297 295 292 287 285 285 287 290 290
18 99 131 129 121 123 132 136 136 136 135 130 121 112 109 110 115 117 115 115 121 123 116 107 112 116 91 14 318 303 295 301 313 311 295 290 286 286 286 288 289 287 286 286
152 118 106 98 116 136 146 148 149 151 149 143 134 128 124 121 119 117 115 112 112 113 114 116 117 112 346 303 297 292 290 290 289 286 285 283 282 282 285 286 285 285 287 288